Hourly Weather Ruda

Today, 16 April, Friday

Time Temperature Precipitation Wind Pressure Humidity
00:00 0°C° 0.1 mm 4 mps 745 mmHg 98%
01:00 0°C° 0.1 mm 4 mps 745 mmHg 98%
02:00 0°C° 0.1 mm 4 mps 745 mmHg 98%
03:00 0°C° 0.2 mm 4 mps 744 mmHg 98%
04:00 0°C° 0.2 mm 4 mps 744 mmHg 98%
05:00 +1°C° 0.2 mm 4 mps 744 mmHg 98%
06:00 +1°C° 1.4 mm 4 mps 744 mmHg 98%
07:00 +1°C° 1.4 mm 4 mps 744 mmHg 98%
08:00 +1°C° 1.4 mm 5 mps 743 mmHg 98%
09:00 +1°C° 0.7 mm 5 mps 743 mmHg 98%
10:00 +1°C° 0.7 mm 5 mps 743 mmHg 98%
11:00 +1°C° 0.7 mm 5 mps 743 mmHg 98%
12:00 +2°C° 0.3 mm 5 mps 743 mmHg 98%
13:00 +2°C° 0.3 mm 5 mps 743 mmHg 97%
14:00 +2°C° 0.3 mm 5 mps 743 mmHg 97%
15:00 +3°C° 0.8 mm 5 mps 743 mmHg 97%
16:00 +3°C° 0.8 mm 5 mps 744 mmHg 97%
17:00 +3°C° 0.8 mm 5 mps 744 mmHg 97%
18:00 +4°C° 0.2 mm 4 mps 744 mmHg 97%
19:00 +4°C° 0.2 mm 4 mps 744 mmHg 97%
20:00 +4°C° 0.2 mm 4 mps 745 mmHg 98%
21:00 +4°C° 0.7 mm 4 mps 745 mmHg 98%
22:00 +4°C° 0.7 mm 4 mps 745 mmHg 98%
23:00 +4°C° 0.7 mm 3 mps 745 mmHg 98%

Tomorrow, 17 April, Saturday

Time Temperature Precipitation Wind Pressure Humidity
00:00 +4°C° 0.1 mm 3 mps 745 mmHg 98%
01:00 +3°C° 0.1 mm 3 mps 745 mmHg 98%
02:00 +3°C° 0.1 mm 3 mps 746 mmHg 98%
03:00 +3°C° 0.1 mm 3 mps 746 mmHg 98%
04:00 +3°C° 0.1 mm 3 mps 746 mmHg 98%
05:00 +3°C° 0.1 mm 3 mps 746 mmHg 98%
06:00 +4°C° 0.1 mm 2 mps 746 mmHg 97%
07:00 +4°C° 0.1 mm 2 mps 747 mmHg 97%
08:00 +4°C° 0.1 mm 2 mps 747 mmHg 96%
09:00 +5°C° 0 mm 2 mps 747 mmHg 93%
10:00 +6°C° 0 mm 2 mps 748 mmHg 90%
11:00 +7°C° 0 mm 2 mps 748 mmHg 87%
12:00 +7°C° 0 mm 2 mps 748 mmHg 84%
13:00 +8°C° 0 mm 2 mps 748 mmHg 81%
14:00 +8°C° 0 mm 2 mps 748 mmHg 79%
15:00 +8°C° 0 mm 2 mps 749 mmHg 79%
16:00 +8°C° 0 mm 2 mps 749 mmHg 78%
17:00 +8°C° 0 mm 2 mps 749 mmHg 78%
18:00 +7°C° 0 mm 2 mps 749 mmHg 82%
19:00 +7°C° 0 mm 2 mps 749 mmHg 85%
20:00 +7°C° 0 mm 1 mps 749 mmHg 88%
21:00 +7°C° 0 mm 1 mps 749 mmHg 89%
22:00 +6°C° 0 mm 2 mps 749 mmHg 89%
23:00 +5°C° 0 mm 2 mps 749 mmHg 90%

Day after tomorrow, 18 April, Sunday

Time Temperature Precipitation Wind Pressure Humidity
00:00 +6°C° 0 mm 1 mps 749 mmHg 91%
01:00 +6°C° 0 mm 1 mps 749 mmHg 92%
02:00 +5°C° 0 mm 1 mps 749 mmHg 93%
03:00 +5°C° 0 mm 1 mps 749 mmHg 93%
04:00 +5°C° 0 mm 1 mps 749 mmHg 92%
05:00 +6°C° 0 mm 1 mps 749 mmHg 92%
06:00 +6°C° 0 mm 1 mps 749 mmHg 91%
07:00 +7°C° 0 mm 1 mps 749 mmHg 90%
08:00 +6°C° 0 mm 0 mps 749 mmHg 88%
09:00 +7°C° 0 mm 0 mps 749 mmHg 82%
10:00 +9°C° 0 mm 0 mps 748 mmHg 77%
11:00 +10°C° 0 mm 0 mps 748 mmHg 71%
12:00 +11°C° 0 mm 1 mps 748 mmHg 68%
13:00 +12°C° 0 mm 1 mps 748 mmHg 64%
14:00 +13°C° 0 mm 2 mps 748 mmHg 61%
15:00 +12°C° 0 mm 2 mps 748 mmHg 64%
16:00 +11°C° 0 mm 3 mps 748 mmHg 67%
17:00 +11°C° 0 mm 3 mps 748 mmHg 70%
18:00 +10°C° 0.1 mm 3 mps 748 mmHg 75%
19:00 +9°C° 0.1 mm 3 mps 748 mmHg 81%
20:00 +8°C° 0.1 mm 2 mps 748 mmHg 87%
21:00 +8°C° 0 mm 2 mps 748 mmHg 87%
22:00 +8°C° 0 mm 2 mps 748 mmHg 87%
23:00 +8°C° 0 mm 2 mps 748 mmHg 87%

19 April, Monday

Time Temperature Precipitation Wind Pressure Humidity
00:00 +8°C° 0 mm 2 mps 748 mmHg 88%
01:00 +8°C° 0 mm 2 mps 748 mmHg 88%
02:00 +8°C° 0 mm 2 mps 748 mmHg 89%
03:00 +8°C° 0 mm 2 mps 747 mmHg 90%
04:00 +7°C° 0 mm 2 mps 747 mmHg 91%
05:00 +7°C° 0 mm 3 mps 747 mmHg 92%
06:00 +8°C° 0 mm 3 mps 747 mmHg 90%
07:00 +7°C° 0 mm 4 mps 747 mmHg 88%
08:00 +8°C° 0 mm 5 mps 747 mmHg 86%
09:00 +8°C° 0.2 mm 5 mps 747 mmHg 83%
10:00 +8°C° 0.2 mm 5 mps 747 mmHg 81%
11:00 +9°C° 0.2 mm 5 mps 747 mmHg 78%
12:00 +9°C° 0.1 mm 5 mps 747 mmHg 75%
13:00 +9°C° 0.1 mm 5 mps 747 mmHg 72%
14:00 +9°C° 0.1 mm 5 mps 747 mmHg 70%
15:00 +9°C° 0 mm 5 mps 746 mmHg 70%
16:00 +9°C° 0 mm 5 mps 746 mmHg 70%
17:00 +9°C° 0 mm 6 mps 746 mmHg 70%
18:00 +8°C° 0 mm 5 mps 746 mmHg 71%
19:00 +8°C° 0 mm 5 mps 746 mmHg 71%
20:00 +7°C° 0 mm 5 mps 746 mmHg 72%
21:00 +7°C° 0 mm 5 mps 746 mmHg 72%
22:00 +7°C° 0 mm 5 mps 746 mmHg 73%
23:00 +6°C° 0 mm 5 mps 745 mmHg 73%

20 April, Tuesday

Time Temperature Precipitation Wind Pressure Humidity
00:00 +6°C° 0 mm 4 mps 745 mmHg 73%
01:00 +6°C° 0 mm 4 mps 745 mmHg 73%
02:00 +6°C° 0 mm 4 mps 745 mmHg 73%
03:00 +6°C° 0 mm 4 mps 745 mmHg 74%
04:00 +6°C° 0 mm 4 mps 744 mmHg 76%
05:00 +5°C° 0 mm 5 mps 744 mmHg 77%
06:00 +5°C° 0 mm 5 mps 744 mmHg 79%
07:00 +6°C° 0 mm 5 mps 744 mmHg 80%
08:00 +6°C° 0 mm 5 mps 744 mmHg 82%
09:00 +6°C° 0.1 mm 5 mps 743 mmHg 80%
10:00 +6°C° 0.1 mm 5 mps 743 mmHg 78%
11:00 +7°C° 0.1 mm 6 mps 743 mmHg 76%
12:00 +8°C° 0.1 mm 5 mps 743 mmHg 72%
13:00 +8°C° 0.1 mm 5 mps 743 mmHg 68%
14:00 +9°C° 0.1 mm 5 mps 742 mmHg 64%
15:00 +9°C° 0.1 mm 5 mps 742 mmHg 65%
16:00 +8°C° 0.1 mm 5 mps 742 mmHg 66%
17:00 +8°C° 0.1 mm 5 mps 742 mmHg 67%
18:00 +7°C° 0 mm 5 mps 742 mmHg 68%
19:00 +7°C° 0 mm 5 mps 742 mmHg 70%
20:00 +6°C° 0 mm 4 mps 742 mmHg 72%
21:00 +6°C° 0 mm 4 mps 742 mmHg 73%
22:00 +6°C° 0 mm 4 mps 742 mmHg 74%
23:00 +6°C° 0 mm 4 mps 742 mmHg 75%

21 April, Wednesday

Time Temperature Precipitation Wind Pressure Humidity
00:00 +5°C° 0 mm 4 mps 742 mmHg 77%
01:00 +5°C° 0 mm 4 mps 741 mmHg 78%
02:00 +5°C° 0 mm 4 mps 741 mmHg 79%
03:00 +5°C° 0 mm 4 mps 741 mmHg 81%
04:00 +5°C° 0 mm 4 mps 741 mmHg 83%
05:00 +5°C° 0 mm 4 mps 741 mmHg 85%
06:00 +5°C° 0 mm 4 mps 741 mmHg 79%
07:00 +6°C° 0 mm 5 mps 742 mmHg 74%
08:00 +7°C° 0 mm 5 mps 742 mmHg 69%
09:00 +8°C° 0 mm 5 mps 742 mmHg 62%
10:00 +8°C° 0 mm 5 mps 742 mmHg 55%
11:00 +9°C° 0 mm 6 mps 742 mmHg 47%
12:00 +9°C° 0 mm 6 mps 742 mmHg 49%
13:00 +10°C° 0 mm 6 mps 742 mmHg 50%
14:00 +10°C° 0 mm 6 mps 743 mmHg 52%
15:00 +10°C° 0 mm 5 mps 743 mmHg 53%
16:00 +10°C° 0 mm 5 mps 743 mmHg 54%
17:00 +10°C° 0 mm 5 mps 743 mmHg 55%
18:00 +10°C° 0 mm 4 mps 743 mmHg 62%
19:00 +9°C° 0 mm 3 mps 743 mmHg 68%
20:00 +7°C° 0 mm 3 mps 744 mmHg 74%
21:00 +7°C° 0 mm 3 mps 744 mmHg 77%
22:00 +5°C° 0 mm 3 mps 744 mmHg 80%
23:00 +5°C° 0 mm 3 mps 744 mmHg 83%
Show more